Flag for Mexico Weather past 2 weeks in Guadalajara, Jalisco, Mexico

Now
73 °F

Partly sunny.


Feels Like: 77 °F
Forecast: 54 / 79 °F
Wind: 5 mph from South

Location: Don Miguel / Guadalaj

Current Time: Mar 6, 2015 at 12:18:16 PM

Latest Report: Mar 6, 2015 at 11:51 AM


Visibility: 10 mi

Pressure: 29.93 "Hg

Humidity: 38%

Dew point: 46 °F

Location of GuadalajaraLocation

Historic Weather in Guadalajara — Graph

°F

Guadalajara temperature yesterday

Maximum temperature yesterday: 81 °F (at 2:56 PM)
Minimum temperature yesterday: 52 °F (at 6:52 AM)
Average temperature yesterday: 68 °F

Past Weeks' High & Low Weather Summary

 TemperatureHumidityPressure
High88 °F (Feb 23, 2:52 PM)87% (Feb 21, 6:48 AM)30.30 "Hg (Feb 21, 6:48 AM)
Low41 °F (Feb 27, 7:55 AM)6% (Feb 27, 2:54 PM)29.69 "Hg (Feb 27, 2:54 PM)
Average66 °F40%30.06 "Hg
* Reported Feb 19 10:46 AM — Mar 6 10:54 AM, Guadalajara, Weather by CustomWeather, © 2015

Note: Actual official high and low records may vary slightly from our data, if they occured in-between our weather recording intervals... More about our weather records

Advertising

Guadalajara weather history for previous 24 hours

 ConditionsComfort  
Time TempWeatherWind HumidityBarometerVisibility
10:54 AM
Fri, Mar 6
70 °FPartly sunny.3 mph40%30.27 "Hg10 mi
8:50 AM63 °FSunny.8 mph56%29.96 "Hg10 mi
7:54 AM59 °FScattered clouds.7 mph59%30.22 "Hg10 mi
6:48 AM57 °FPassing clouds.5 mph67%30.19 "Hg10 mi
5:46 AM61 °FPassing clouds.9 mph59%29.85 "Hg10 mi
4:45 AM61 °FPassing clouds.No wind59%30.16 "Hg10 mi
3:45 AM61 °FPassing clouds.No wind59%30.15 "Hg10 mi
1:50 AM64 °FPassing clouds.No wind46%30.15 "Hg10 mi
12:53 AM64 °FPassing clouds.3 mph43%30.16 "Hg10 mi
11:48 PM
Thu, Mar 5
66 °FPassing clouds.No wind37%29.85 "Hg10 mi
9:49 PM68 °FMostly cloudy.5 mph35%30.15 "Hg10 mi
8:47 PM72 °FMostly cloudy.6 mph33%29.84 "Hg10 mi
6:48 PM77 °FMostly cloudy.8 mph22%30.08 "Hg10 mi
5:53 PM79 °FPartly sunny.6 mph23%29.78 "Hg10 mi
4:50 PM79 °FPartly sunny.No wind20%30.07 "Hg10 mi
3:52 PM79 °FPartly sunny.6 mph21%30.08 "Hg10 mi
2:56 PM81 °FPartly sunny.6 mph21%29.78 "Hg10 mi
1:50 PM75 °FPartly sunny.5 mph25%30.13 "Hg10 mi
12:49 PM75 °FPartly sunny.No wind27%30.16 "Hg10 mi
Weather by CustomWeather, © 2015

See weather overviewHow to use our weather pages